Location: Asheville, NC
(35.6000°N, 82.5500°W)
Time: 04:39:04
(UTC-04:00)

UWE-3 - Pass Details

Date: 18 February 2018
Orbit: 587 x 683 km, 97.6° (Epoch: 20 May)

Event Time Altitude Azimuth Distance (km) Brightness Sun altitude
Rises 20:01:26 0° 191° (S) 3,025 ? -22.2°
Reaches altitude 10° 20:03:54 10° 202° (SSW) 2,116 ? -22.7°
Maximum altitude 20:07:58 30° 264° (W) 1,211 ? -23.6°
Drops below altitude 10° 20:12:03 10° 325° (NW) 2,116 ? -24.4°
Sets 20:14:31 0° 336° (NNW) 3,025 ? -24.9°
